Data supplied by UK-AIR on 1/4/2011
All Data GMT hour ending 
Status: R =Ratified P=Provisional,P*=As supplied
,,Sandwell West Bromwich,,,,,,,,,,,,,,,,,,,,,,,
Date,time,"Nitric oxide",status,unit,"Nitrogen dioxide",status,unit,"Nitrogen oxides as nitrogen dioxide",status,unit,"Ozone",status,unit,"Sulphur dioxide",status,unit
 
01-01-2010,01:00,1,R,ugm-3,25,R,ugm-3,27,R,ugm-3,44,R,ugm-3,3,R,ugm-3
01-01-2010,02:00,6,R,ugm-3,36,R,ugm-3,46,R,ugm-3,32,R,ugm-3,3,R,ugm-3
01-01-2010,03:00,1,R,ugm-3,36,R,ugm-3,38,R,ugm-3,30,R,ugm-3,3,R,ugm-3
01-01-2010,04:00,3,R,ugm-3,34,R,ugm-3,38,R,ugm-3,32,R,ugm-3,3,R,ugm-3
01-01-2010,05:00,1,R,ugm-3,31,R,ugm-3,32,R,ugm-3,36,R,ugm-3,0,R,ugm-3
01-01-2010,06:00,3,R,ugm-3,27,R,ugm-3,31,R,ugm-3,34,R,ugm-3,0,R,ugm-3
01-01-2010,07:00,4,R,ugm-3,34,R,ugm-3,40,R,ugm-3,28,R,ugm-3,0,R,ugm-3
01-01-2010,08:00,4,R,ugm-3,40,R,ugm-3,46,R,ugm-3,20,R,ugm-3,0,R,ugm-3
01-01-2010,09:00,9,R,ugm-3,38,R,ugm-3,52,R,ugm-3,20,R,ugm-3,0,R,ugm-3
01-01-2010,10:00,10,R,ugm-3,32,R,ugm-3,48,R,ugm-3,26,R,ugm-3,0,R,ugm-3
01-01-2010,11:00,10,R,ugm-3,31,R,ugm-3,46,R,ugm-3,34,R,ugm-3,0,R,ugm-3
01-01-2010,12:00,8,R,ugm-3,29,R,ugm-3,40,R,ugm-3,40,R,ugm-3,3,R,ugm-3
01-01-2010,13:00,6,R,ugm-3,25,R,ugm-3,34,R,ugm-3,48,R,ugm-3,3,R,ugm-3
01-01-2010,14:00,5,R,ugm-3,29,R,ugm-3,36,R,ugm-3,46,R,ugm-3,5,R,ugm-3
01-01-2010,15:00,5,R,ugm-3,27,R,ugm-3,34,R,ugm-3,46,R,ugm-3,3,R,ugm-3
01-01-2010,16:00,6,R,ugm-3,34,R,ugm-3,44,R,ugm-3,38,R,ugm-3,3,R,ugm-3
01-01-2010,17:00,6,R,ugm-3,36,R,ugm-3,46,R,ugm-3,38,R,ugm-3,3,R,ugm-3
01-01-2010,18:00,5,R,ugm-3,34,R,ugm-3,42,R,ugm-3,40,R,ugm-3,3,R,ugm-3
01-01-2010,19:00,4,R,ugm-3,31,R,ugm-3,36,R,ugm-3,44,R,ugm-3,0,R,ugm-3
01-01-2010,20:00,3,R,ugm-3,23,R,ugm-3,27,R,ugm-3,46,R,ugm-3,0,R,ugm-3
01-01-2010,21:00,3,R,ugm-3,19,R,ugm-3,23,R,ugm-3,48,R,ugm-3,0,R,ugm-3
01-01-2010,22:00,3,R,ugm-3,19,R,ugm-3,23,R,ugm-3,46,R,ugm-3,0,R,ugm-3
01-01-2010,23:00,1,R,ugm-3,21,R,ugm-3,23,R,ugm-3,40,R,ugm-3,3,R,ugm-3
01-01-2010,24:00,0,R,ugm-3,23,R,ugm-3,23,R,ugm-3,40,R,ugm-3,3,R,ugm-3
02-01-2010,01:00,1,R,ugm-3,21,R,ugm-3,23,R,ugm-3,38,R,ugm-3,3,R,ugm-3
02-01-2010,02:00,0,R,ugm-3,19,R,ugm-3,19,R,ugm-3,40,R,ugm-3,0,R,ugm-3
02-01-2010,03:00,1,R,ugm-3,17,R,ugm-3,19,R,ugm-3,40,R,ugm-3,3,R,ugm-3
02-01-2010,04:00,3,R,ugm-3,17,R,ugm-3,21,R,ugm-3,40,R,ugm-3,3,R,ugm-3
02-01-2010,05:00,3,R,ugm-3,13,R,ugm-3,17,R,ugm-3,46,R,ugm-3,3,R,ugm-3
02-01-2010,06:00,3,R,ugm-3,15,R,ugm-3,19,R,ugm-3,48,R,ugm-3,0,R,ugm-3
02-01-2010,07:00,13,R,ugm-3,38,R,ugm-3,57,R,ugm-3,28,R,ugm-3,3,R,ugm-3
02-01-2010,08:00,24,R,ugm-3,55,R,ugm-3,92,R,ugm-3,16,R,ugm-3,3,R,ugm-3
02-01-2010,09:00,14,R,ugm-3,46,R,ugm-3,67,R,ugm-3,24,R,ugm-3,0,R,ugm-3
02-01-2010,10:00,15,R,ugm-3,44,R,ugm-3,67,R,ugm-3,24,R,ugm-3,0,R,ugm-3
02-01-2010,11:00,10,R,ugm-3,31,R,ugm-3,46,R,ugm-3,34,R,ugm-3,0,R,ugm-3
02-01-2010,12:00,10,R,ugm-3,29,R,ugm-3,44,R,ugm-3,36,R,ugm-3,0,R,ugm-3
02-01-2010,13:00,6,R,ugm-3,17,R,ugm-3,27,R,ugm-3,52,R,ugm-3,0,R,ugm-3
02-01-2010,14:00,3,R,ugm-3,13,R,ugm-3,17,R,ugm-3,58,R,ugm-3,0,R,ugm-3
02-01-2010,15:00,3,R,ugm-3,15,R,ugm-3,19,R,ugm-3,56,R,ugm-3,0,R,ugm-3
02-01-2010,16:00,4,R,ugm-3,29,R,ugm-3,34,R,ugm-3,42,R,ugm-3,0,R,ugm-3
02-01-2010,17:00,1,R,ugm-3,32,R,ugm-3,34,R,ugm-3,40,R,ugm-3,0,R,ugm-3
02-01-2010,18:00,4,R,ugm-3,40,R,ugm-3,46,R,ugm-3,34,R,ugm-3,0,R,ugm-3
02-01-2010,19:00,1,R,ugm-3,34,R,ugm-3,36,R,ugm-3,34,R,ugm-3,0,R,ugm-3
02-01-2010,20:00,1,R,ugm-3,42,R,ugm-3,44,R,ugm-3,26,R,ugm-3,0,R,ugm-3
02-01-2010,21:00,4,R,ugm-3,53,R,ugm-3,59,R,ugm-3,16,R,ugm-3,3,R,ugm-3
02-01-2010,22:00,6,R,ugm-3,50,R,ugm-3,59,R,ugm-3,14,R,ugm-3,5,R,ugm-3
02-01-2010,23:00,3,R,ugm-3,36,R,ugm-3,40,R,ugm-3,18,R,ugm-3,3,R,ugm-3
02-01-2010,24:00,3,R,ugm-3,32,R,ugm-3,36,R,ugm-3,20,R,ugm-3,3,R,ugm-3
03-01-2010,01:00,0,R,ugm-3,17,R,ugm-3,17,R,ugm-3,32,R,ugm-3,3,R,ugm-3
03-01-2010,02:00,0,R,ugm-3,15,R,ugm-3,15,R,ugm-3,34,R,ugm-3,3,R,ugm-3
03-01-2010,03:00,0,R,ugm-3,10,R,ugm-3,10,R,ugm-3,36,R,ugm-3,3,R,ugm-3
03-01-2010,04:00,0,R,ugm-3,8,R,ugm-3,8,R,ugm-3,40,R,ugm-3,3,R,ugm-3
03-01-2010,05:00,0,R,ugm-3,8,R,ugm-3,8,R,ugm-3,44,R,ugm-3,0,R,ugm-3
03-01-2010,06:00,0,R,ugm-3,8,R,ugm-3,8,R,ugm-3,42,R,ugm-3,0,R,ugm-3
03-01-2010,07:00,0,R,ugm-3,11,R,ugm-3,11,R,ugm-3,36,R,ugm-3,0,R,ugm-3
03-01-2010,08:00,1,R,ugm-3,19,R,ugm-3,21,R,ugm-3,28,R,ugm-3,3,R,ugm-3
03-01-2010,09:00,4,R,ugm-3,21,R,ugm-3,27,R,ugm-3,24,R,ugm-3,3,R,ugm-3
03-01-2010,10:00,10,R,ugm-3,27,R,ugm-3,42,R,ugm-3,22,R,ugm-3,5,R,ugm-3
03-01-2010,11:00,8,R,ugm-3,21,R,ugm-3,32,R,ugm-3,30,R,ugm-3,3,R,ugm-3
03-01-2010,12:00,8,R,ugm-3,19,R,ugm-3,31,R,ugm-3,32,R,ugm-3,3,R,ugm-3
03-01-2010,13:00,13,R,ugm-3,25,R,ugm-3,44,R,ugm-3,26,R,ugm-3,3,R,ugm-3
03-01-2010,14:00,11,R,ugm-3,27,R,ugm-3,44,R,ugm-3,24,R,ugm-3,5,R,ugm-3
03-01-2010,15:00,13,R,ugm-3,34,R,ugm-3,53,R,ugm-3,18,R,ugm-3,5,R,ugm-3
03-01-2010,16:00,15,R,ugm-3,42,R,ugm-3,65,R,ugm-3,8,R,ugm-3,8,R,ugm-3
03-01-2010,17:00,25,R,ugm-3,50,R,ugm-3,88,R,ugm-3,2,R,ugm-3,11,R,ugm-3
03-01-2010,18:00,23,R,ugm-3,50,R,ugm-3,84,R,ugm-3,2,R,ugm-3,13,R,ugm-3
03-01-2010,19:00,29,R,ugm-3,52,R,ugm-3,96,R,ugm-3,2,R,ugm-3,16,R,ugm-3
03-01-2010,20:00,34,R,ugm-3,52,R,ugm-3,103,R,ugm-3,2,R,ugm-3,13,R,ugm-3
03-01-2010,21:00,49,R,ugm-3,53,R,ugm-3,128,R,ugm-3,2,R,ugm-3,8,R,ugm-3
03-01-2010,22:00,80,R,ugm-3,61,R,ugm-3,183,R,ugm-3,2,R,ugm-3,8,R,ugm-3
03-01-2010,23:00,85,R,ugm-3,59,R,ugm-3,189,R,ugm-3,2,R,ugm-3,8,R,ugm-3
03-01-2010,24:00,86,R,ugm-3,57,R,ugm-3,189,R,ugm-3,2,R,ugm-3,8,R,ugm-3
04-01-2010,01:00,43,R,ugm-3,50,R,ugm-3,115,R,ugm-3,2,R,ugm-3,5,R,ugm-3
04-01-2010,02:00,19,R,ugm-3,44,R,ugm-3,73,R,ugm-3,0,R,ugm-3,5,R,ugm-3
04-01-2010,03:00,14,R,ugm-3,46,R,ugm-3,67,R,ugm-3,0,R,ugm-3,3,R,ugm-3
04-01-2010,04:00,16,R,ugm-3,44,R,ugm-3,69,R,ugm-3,0,R,ugm-3,3,R,ugm-3
04-01-2010,05:00,21,R,ugm-3,44,R,ugm-3,76,R,ugm-3,0,R,ugm-3,3,R,ugm-3
04-01-2010,06:00,33,R,ugm-3,44,R,ugm-3,94,R,ugm-3,0,R,ugm-3,5,R,ugm-3
04-01-2010,07:00,56,R,ugm-3,48,R,ugm-3,134,R,ugm-3,0,R,ugm-3,5,R,ugm-3
04-01-2010,08:00,91,R,ugm-3,57,R,ugm-3,197,R,ugm-3,0,R,ugm-3,8,R,ugm-3
04-01-2010,09:00,123,R,ugm-3,67,R,ugm-3,254,R,ugm-3,2,R,ugm-3,8,R,ugm-3
04-01-2010,10:00,94,R,ugm-3,61,R,ugm-3,204,R,ugm-3,4,R,ugm-3,5,R,ugm-3
04-01-2010,11:00,64,R,ugm-3,52,R,ugm-3,149,R,ugm-3,8,R,ugm-3,8,R,ugm-3
04-01-2010,12:00,50,R,ugm-3,48,R,ugm-3,124,R,ugm-3,8,R,ugm-3,21,R,ugm-3
04-01-2010,13:00,38,R,ugm-3,46,R,ugm-3,103,R,ugm-3,12,R,ugm-3,16,R,ugm-3
04-01-2010,14:00,25,R,ugm-3,46,R,ugm-3,84,R,ugm-3,16,R,ugm-3,11,R,ugm-3
04-01-2010,15:00,30,R,ugm-3,52,R,ugm-3,97,R,ugm-3,10,R,ugm-3,5,R,ugm-3
04-01-2010,16:00,56,R,ugm-3,61,R,ugm-3,147,R,ugm-3,4,R,ugm-3,5,R,ugm-3
04-01-2010,17:00,44,R,ugm-3,61,R,ugm-3,128,R,ugm-3,2,R,ugm-3,5,R,ugm-3
04-01-2010,18:00,69,R,ugm-3,67,R,ugm-3,172,R,ugm-3,2,R,ugm-3,5,R,ugm-3
04-01-2010,19:00,68,R,ugm-3,61,R,ugm-3,164,R,ugm-3,2,R,ugm-3,5,R,ugm-3
04-01-2010,20:00,26,R,ugm-3,52,R,ugm-3,92,R,ugm-3,4,R,ugm-3,5,R,ugm-3
04-01-2010,21:00,8,R,ugm-3,40,R,ugm-3,52,R,ugm-3,10,R,ugm-3,3,R,ugm-3
04-01-2010,22:00,6,R,ugm-3,42,R,ugm-3,52,R,ugm-3,10,R,ugm-3,3,R,ugm-3
04-01-2010,23:00,4,R,ugm-3,34,R,ugm-3,40,R,ugm-3,16,R,ugm-3,3,R,ugm-3
04-01-2010,24:00,1,R,ugm-3,25,R,ugm-3,27,R,ugm-3,24,R,ugm-3,3,R,ugm-3
05-01-2010,01:00,1,R,ugm-3,21,R,ugm-3,23,R,ugm-3,26,R,ugm-3,3,R,ugm-3
05-01-2010,02:00,1,R,ugm-3,17,R,ugm-3,19,R,ugm-3,30,R,ugm-3,3,R,ugm-3
05-01-2010,03:00,0,R,ugm-3,15,R,ugm-3,15,R,ugm-3,32,R,ugm-3,3,R,ugm-3
05-01-2010,04:00,1,R,ugm-3,21,R,ugm-3,23,R,ugm-3,26,R,ugm-3,3,R,ugm-3
05-01-2010,05:00,6,R,ugm-3,31,R,ugm-3,40,R,ugm-3,14,R,ugm-3,3,R,ugm-3
05-01-2010,06:00,16,R,ugm-3,44,R,ugm-3,69,R,ugm-3,6,R,ugm-3,3,R,ugm-3
05-01-2010,07:00,39,R,ugm-3,55,R,ugm-3,115,R,ugm-3,2,R,ugm-3,3,R,ugm-3
05-01-2010,08:00,55,R,ugm-3,63,R,ugm-3,147,R,ugm-3,0,R,ugm-3,3,R,ugm-3
05-01-2010,09:00,65,R,ugm-3,65,R,ugm-3,164,R,ugm-3,4,R,ugm-3,3,R,ugm-3
05-01-2010,10:00,39,R,ugm-3,55,R,ugm-3,115,R,ugm-3,6,R,ugm-3,3,R,ugm-3
05-01-2010,11:00,33,R,ugm-3,52,R,ugm-3,101,R,ugm-3,10,R,ugm-3,3,R,ugm-3
05-01-2010,12:00,24,R,ugm-3,46,R,ugm-3,82,R,ugm-3,14,R,ugm-3,3,R,ugm-3
05-01-2010,13:00,35,R,ugm-3,55,R,ugm-3,109,R,ugm-3,10,R,ugm-3,3,R,ugm-3
05-01-2010,14:00,43,R,ugm-3,65,R,ugm-3,130,R,ugm-3,6,R,ugm-3,3,R,ugm-3
05-01-2010,15:00,41,R,ugm-3,74,R,ugm-3,138,R,ugm-3,8,R,ugm-3,3,R,ugm-3
05-01-2010,16:00,31,R,ugm-3,76,R,ugm-3,124,R,ugm-3,6,R,ugm-3,3,R,ugm-3
05-01-2010,17:00,38,R,ugm-3,63,R,ugm-3,120,R,ugm-3,2,R,ugm-3,3,R,ugm-3
05-01-2010,18:00,31,R,ugm-3,57,R,ugm-3,105,R,ugm-3,0,R,ugm-3,3,R,ugm-3
05-01-2010,19:00,31,R,ugm-3,57,R,ugm-3,105,R,ugm-3,2,R,ugm-3,3,R,ugm-3
05-01-2010,20:00,36,R,ugm-3,55,R,ugm-3,111,R,ugm-3,0,R,ugm-3,5,R,ugm-3
05-01-2010,21:00,34,R,ugm-3,57,R,ugm-3,109,R,ugm-3,0,R,ugm-3,5,R,ugm-3
05-01-2010,22:00,21,R,ugm-3,55,R,ugm-3,88,R,ugm-3,0,R,ugm-3,5,R,ugm-3
05-01-2010,23:00,18,R,ugm-3,50,R,ugm-3,76,R,ugm-3,0,R,ugm-3,3,R,ugm-3
05-01-2010,24:00,6,R,ugm-3,46,R,ugm-3,55,R,ugm-3,4,R,ugm-3,3,R,ugm-3
06-01-2010,01:00,4,R,ugm-3,40,R,ugm-3,46,R,ugm-3,12,R,ugm-3,3,R,ugm-3
06-01-2010,02:00,1,R,ugm-3,40,R,ugm-3,42,R,ugm-3,16,R,ugm-3,3,R,ugm-3
06-01-2010,03:00,1,R,ugm-3,34,R,ugm-3,36,R,ugm-3,24,R,ugm-3,3,R,ugm-3
06-01-2010,04:00,0,R,ugm-3,31,R,ugm-3,31,R,ugm-3,36,R,ugm-3,5,R,ugm-3
06-01-2010,05:00,1,R,ugm-3,27,R,ugm-3,29,R,ugm-3,44,R,ugm-3,3,R,ugm-3
06-01-2010,06:00,3,R,ugm-3,29,R,ugm-3,32,R,ugm-3,42,R,ugm-3,5,R,ugm-3
06-01-2010,07:00,5,R,ugm-3,42,R,ugm-3,50,R,ugm-3,30,R,ugm-3,11,R,ugm-3
06-01-2010,08:00,5,R,ugm-3,34,R,ugm-3,42,R,ugm-3,38,R,ugm-3,5,R,ugm-3
06-01-2010,09:00,6,R,ugm-3,40,R,ugm-3,50,R,ugm-3,28,R,ugm-3,5,R,ugm-3
06-01-2010,10:00,10,R,ugm-3,38,R,ugm-3,53,R,ugm-3,30,R,ugm-3,5,R,ugm-3
06-01-2010,11:00,16,R,ugm-3,42,R,ugm-3,67,R,ugm-3,28,R,ugm-3,3,R,ugm-3
06-01-2010,12:00,18,R,ugm-3,42,R,ugm-3,69,R,ugm-3,36,R,ugm-3,5,R,ugm-3
06-01-2010,13:00,16,R,ugm-3,42,R,ugm-3,67,R,ugm-3,38,R,ugm-3,3,R,ugm-3
06-01-2010,14:00,16,R,ugm-3,42,R,ugm-3,67,R,ugm-3,38,R,ugm-3,5,R,ugm-3
06-01-2010,15:00,14,R,ugm-3,44,R,ugm-3,65,R,ugm-3,36,R,ugm-3,5,R,ugm-3
06-01-2010,16:00,11,R,ugm-3,50,R,ugm-3,67,R,ugm-3,34,R,ugm-3,3,R,ugm-3
06-01-2010,17:00,10,R,ugm-3,52,R,ugm-3,67,R,ugm-3,30,R,ugm-3,3,R,ugm-3
06-01-2010,18:00,9,R,ugm-3,57,R,ugm-3,71,R,ugm-3,26,R,ugm-3,3,R,ugm-3
06-01-2010,19:00,9,R,ugm-3,73,R,ugm-3,86,R,ugm-3,10,R,ugm-3,8,R,ugm-3
06-01-2010,20:00,10,R,ugm-3,65,R,ugm-3,80,R,ugm-3,16,R,ugm-3,5,R,ugm-3
06-01-2010,21:00,9,R,ugm-3,71,R,ugm-3,84,R,ugm-3,12,R,ugm-3,5,R,ugm-3
06-01-2010,22:00,10,R,ugm-3,73,R,ugm-3,88,R,ugm-3,8,R,ugm-3,3,R,ugm-3
06-01-2010,23:00,16,R,ugm-3,78,R,ugm-3,103,R,ugm-3,2,R,ugm-3,3,R,ugm-3
06-01-2010,24:00,6,R,ugm-3,67,R,ugm-3,76,R,ugm-3,10,R,ugm-3,3,R,ugm-3
07-01-2010,01:00,4,R,ugm-3,48,R,ugm-3,53,R,ugm-3,22,R,ugm-3,3,R,ugm-3
07-01-2010,02:00,1,R,ugm-3,38,R,ugm-3,40,R,ugm-3,28,R,ugm-3,3,R,ugm-3
07-01-2010,03:00,5,R,ugm-3,42,R,ugm-3,50,R,ugm-3,22,R,ugm-3,3,R,ugm-3
07-01-2010,04:00,4,R,ugm-3,46,R,ugm-3,52,R,ugm-3,18,R,ugm-3,3,R,ugm-3
07-01-2010,05:00,5,R,ugm-3,52,R,ugm-3,59,R,ugm-3,14,R,ugm-3,3,R,ugm-3
07-01-2010,06:00,14,R,ugm-3,59,R,ugm-3,80,R,ugm-3,8,R,ugm-3,3,R,ugm-3
07-01-2010,07:00,18,R,ugm-3,65,R,ugm-3,92,R,ugm-3,6,R,ugm-3,3,R,ugm-3
07-01-2010,08:00,25,R,ugm-3,71,R,ugm-3,109,R,ugm-3,4,R,ugm-3,3,R,ugm-3
07-01-2010,09:00,33,R,ugm-3,67,R,ugm-3,117,R,ugm-3,8,R,ugm-3,5,R,ugm-3
07-01-2010,10:00,34,R,ugm-3,61,R,ugm-3,113,R,ugm-3,16,R,ugm-3,5,R,ugm-3
07-01-2010,11:00,34,R,ugm-3,57,R,ugm-3,109,R,ugm-3,24,R,ugm-3,5,R,ugm-3
07-01-2010,12:00,28,R,ugm-3,52,R,ugm-3,94,R,ugm-3,30,R,ugm-3,5,R,ugm-3
07-01-2010,13:00,23,R,ugm-3,48,R,ugm-3,82,R,ugm-3,34,R,ugm-3,5,R,ugm-3
07-01-2010,14:00,23,R,ugm-3,53,R,ugm-3,88,R,ugm-3,30,R,ugm-3,5,R,ugm-3
07-01-2010,15:00,25,R,ugm-3,67,R,ugm-3,105,R,ugm-3,20,R,ugm-3,5,R,ugm-3
07-01-2010,16:00,30,R,ugm-3,82,R,ugm-3,128,R,ugm-3,6,R,ugm-3,3,R,ugm-3
07-01-2010,17:00,40,R,ugm-3,90,R,ugm-3,151,R,ugm-3,0,R,ugm-3,3,R,ugm-3
07-01-2010,18:00,39,R,ugm-3,92,R,ugm-3,151,R,ugm-3,0,R,ugm-3,3,R,ugm-3
07-01-2010,19:00,43,R,ugm-3,92,R,ugm-3,157,R,ugm-3,0,R,ugm-3,3,R,ugm-3
07-01-2010,20:00,50,R,ugm-3,96,R,ugm-3,172,R,ugm-3,0,R,ugm-3,5,R,ugm-3
07-01-2010,21:00,59,R,ugm-3,96,R,ugm-3,185,R,ugm-3,0,R,ugm-3,5,R,ugm-3
07-01-2010,22:00,75,R,ugm-3,97,R,ugm-3,212,R,ugm-3,0,R,ugm-3,5,R,ugm-3
07-01-2010,23:00,99,R,ugm-3,103,R,ugm-3,254,R,ugm-3,0,R,ugm-3,5,R,ugm-3
07-01-2010,24:00,89,R,ugm-3,99,R,ugm-3,235,R,ugm-3,0,R,ugm-3,5,R,ugm-3
08-01-2010,01:00,74,R,ugm-3,96,R,ugm-3,208,R,ugm-3,0,R,ugm-3,5,R,ugm-3
08-01-2010,02:00,56,R,ugm-3,88,R,ugm-3,174,R,ugm-3,0,R,ugm-3,5,R,ugm-3
08-01-2010,03:00,44,R,ugm-3,86,R,ugm-3,153,R,ugm-3,0,R,ugm-3,5,R,ugm-3
08-01-2010,04:00,48,R,ugm-3,84,R,ugm-3,157,R,ugm-3,0,R,ugm-3,5,R,ugm-3
08-01-2010,05:00,54,R,ugm-3,86,R,ugm-3,168,R,ugm-3,0,R,ugm-3,5,R,ugm-3
08-01-2010,06:00,68,R,ugm-3,86,R,ugm-3,189,R,ugm-3,0,R,ugm-3,5,R,ugm-3
08-01-2010,07:00,91,R,ugm-3,88,R,ugm-3,227,R,ugm-3,0,R,ugm-3,5,R,ugm-3
08-01-2010,08:00,119,R,ugm-3,94,R,ugm-3,275,R,ugm-3,0,R,ugm-3,3,R,ugm-3
08-01-2010,09:00,123,R,ugm-3,94,R,ugm-3,281,R,ugm-3,2,R,ugm-3,5,R,ugm-3
08-01-2010,10:00,106,R,ugm-3,88,R,ugm-3,250,R,ugm-3,6,R,ugm-3,5,R,ugm-3
08-01-2010,11:00,73,R,ugm-3,76,R,ugm-3,187,R,ugm-3,14,R,ugm-3,5,R,ugm-3
08-01-2010,12:00,25,R,ugm-3,50,R,ugm-3,88,R,ugm-3,30,R,ugm-3,8,R,ugm-3
08-01-2010,13:00,25,R,ugm-3,44,R,ugm-3,82,R,ugm-3,32,R,ugm-3,8,R,ugm-3
08-01-2010,14:00,26,R,ugm-3,52,R,ugm-3,92,R,ugm-3,28,R,ugm-3,8,R,ugm-3
08-01-2010,15:00,39,R,ugm-3,69,R,ugm-3,128,R,ugm-3,14,R,ugm-3,8,R,ugm-3
08-01-2010,16:00,49,R,ugm-3,84,R,ugm-3,159,R,ugm-3,6,R,ugm-3,8,R,ugm-3
08-01-2010,17:00,73,R,ugm-3,96,R,ugm-3,206,R,ugm-3,0,R,ugm-3,8,R,ugm-3
08-01-2010,18:00,65,R,ugm-3,96,R,ugm-3,195,R,ugm-3,0,R,ugm-3,5,R,ugm-3
08-01-2010,19:00,68,R,ugm-3,101,R,ugm-3,204,R,ugm-3,0,R,ugm-3,5,R,ugm-3
08-01-2010,20:00,55,R,ugm-3,99,R,ugm-3,183,R,ugm-3,0,R,ugm-3,5,R,ugm-3
08-01-2010,21:00,30,R,ugm-3,92,R,ugm-3,138,R,ugm-3,0,R,ugm-3,5,R,ugm-3
08-01-2010,22:00,10,R,ugm-3,55,R,ugm-3,71,R,ugm-3,22,R,ugm-3,5,R,ugm-3
08-01-2010,23:00,5,R,ugm-3,63,R,ugm-3,71,R,ugm-3,14,R,ugm-3,5,R,ugm-3
08-01-2010,24:00,15,R,ugm-3,78,R,ugm-3,101,R,ugm-3,2,R,ugm-3,5,R,ugm-3
09-01-2010,01:00,21,R,ugm-3,76,R,ugm-3,109,R,ugm-3,0,R,ugm-3,8,R,ugm-3
09-01-2010,02:00,6,R,ugm-3,38,R,ugm-3,48,R,ugm-3,30,R,ugm-3,5,R,ugm-3
09-01-2010,03:00,5,R,ugm-3,34,R,ugm-3,42,R,ugm-3,30,R,ugm-3,5,R,ugm-3
09-01-2010,04:00,6,R,ugm-3,36,R,ugm-3,46,R,ugm-3,28,R,ugm-3,5,R,ugm-3
09-01-2010,05:00,3,R,ugm-3,27,R,ugm-3,31,R,ugm-3,32,R,ugm-3,3,R,ugm-3
09-01-2010,06:00,4,R,ugm-3,42,R,ugm-3,48,R,ugm-3,20,R,ugm-3,3,R,ugm-3
09-01-2010,07:00,5,R,ugm-3,42,R,ugm-3,50,R,ugm-3,18,R,ugm-3,3,R,ugm-3
09-01-2010,08:00,14,R,ugm-3,42,R,ugm-3,63,R,ugm-3,20,R,ugm-3,3,R,ugm-3
09-01-2010,09:00,11,R,ugm-3,40,R,ugm-3,57,R,ugm-3,22,R,ugm-3,3,R,ugm-3
09-01-2010,10:00,15,R,ugm-3,36,R,ugm-3,59,R,ugm-3,30,R,ugm-3,5,R,ugm-3
09-01-2010,11:00,11,R,ugm-3,32,R,ugm-3,50,R,ugm-3,36,R,ugm-3,3,R,ugm-3
09-01-2010,12:00,11,R,ugm-3,29,R,ugm-3,46,R,ugm-3,42,R,ugm-3,5,R,ugm-3
09-01-2010,13:00,13,R,ugm-3,31,R,ugm-3,50,R,ugm-3,40,R,ugm-3,5,R,ugm-3
09-01-2010,14:00,11,R,ugm-3,32,R,ugm-3,50,R,ugm-3,42,R,ugm-3,5,R,ugm-3
09-01-2010,15:00,8,R,ugm-3,32,R,ugm-3,44,R,ugm-3,42,R,ugm-3,5,R,ugm-3
09-01-2010,16:00,5,R,ugm-3,34,R,ugm-3,42,R,ugm-3,40,R,ugm-3,3,R,ugm-3
09-01-2010,17:00,4,R,ugm-3,32,R,ugm-3,38,R,ugm-3,42,R,ugm-3,3,R,ugm-3
09-01-2010,18:00,4,R,ugm-3,32,R,ugm-3,38,R,ugm-3,42,R,ugm-3,3,R,ugm-3
09-01-2010,19:00,4,R,ugm-3,29,R,ugm-3,34,R,ugm-3,46,R,ugm-3,3,R,ugm-3
09-01-2010,20:00,4,R,ugm-3,27,R,ugm-3,32,R,ugm-3,48,R,ugm-3,3,R,ugm-3
09-01-2010,21:00,3,R,ugm-3,23,R,ugm-3,27,R,ugm-3,50,R,ugm-3,3,R,ugm-3
09-01-2010,22:00,1,R,ugm-3,19,R,ugm-3,21,R,ugm-3,56,R,ugm-3,3,R,ugm-3
09-01-2010,23:00,1,R,ugm-3,15,R,ugm-3,17,R,ugm-3,60,R,ugm-3,3,R,ugm-3
09-01-2010,24:00,0,R,ugm-3,13,R,ugm-3,13,R,ugm-3,60,R,ugm-3,3,R,ugm-3
10-01-2010,01:00,1,R,ugm-3,13,R,ugm-3,15,R,ugm-3,60,R,ugm-3,3,R,ugm-3
10-01-2010,02:00,0,R,ugm-3,13,R,ugm-3,13,R,ugm-3,62,R,ugm-3,3,R,ugm-3
10-01-2010,03:00,1,R,ugm-3,13,R,ugm-3,15,R,ugm-3,64,R,ugm-3,3,R,ugm-3
10-01-2010,04:00,0,R,ugm-3,13,R,ugm-3,13,R,ugm-3,66,R,ugm-3,3,R,ugm-3
10-01-2010,05:00,0,R,ugm-3,11,R,ugm-3,11,R,ugm-3,66,R,ugm-3,3,R,ugm-3
10-01-2010,06:00,0,R,ugm-3,13,R,ugm-3,13,R,ugm-3,66,R,ugm-3,3,R,ugm-3
10-01-2010,07:00,0,R,ugm-3,15,R,ugm-3,15,R,ugm-3,62,R,ugm-3,3,R,ugm-3
10-01-2010,08:00,1,R,ugm-3,17,R,ugm-3,19,R,ugm-3,60,R,ugm-3,3,R,ugm-3
10-01-2010,09:00,1,R,ugm-3,17,R,ugm-3,19,R,ugm-3,60,R,ugm-3,3,R,ugm-3
10-01-2010,10:00,1,R,ugm-3,17,R,ugm-3,19,R,ugm-3,62,R,ugm-3,3,R,ugm-3
10-01-2010,11:00,3,R,ugm-3,25,R,ugm-3,29,R,ugm-3,56,R,ugm-3,3,R,ugm-3
10-01-2010,12:00,3,R,ugm-3,21,R,ugm-3,25,R,ugm-3,58,R,ugm-3,3,R,ugm-3
10-01-2010,13:00,3,R,ugm-3,25,R,ugm-3,29,R,ugm-3,54,R,ugm-3,3,R,ugm-3
10-01-2010,14:00,1,R,ugm-3,23,R,ugm-3,25,R,ugm-3,56,R,ugm-3,3,R,ugm-3
10-01-2010,15:00,1,R,ugm-3,19,R,ugm-3,21,R,ugm-3,60,R,ugm-3,3,R,ugm-3
10-01-2010,16:00,1,R,ugm-3,25,R,ugm-3,27,R,ugm-3,54,R,ugm-3,3,R,ugm-3
10-01-2010,17:00,1,R,ugm-3,17,R,ugm-3,19,R,ugm-3,58,R,ugm-3,3,R,ugm-3
10-01-2010,18:00,0,R,ugm-3,17,R,ugm-3,17,R,ugm-3,60,R,ugm-3,3,R,ugm-3
10-01-2010,19:00,0,R,ugm-3,17,R,ugm-3,17,R,ugm-3,58,R,ugm-3,3,R,ugm-3
10-01-2010,20:00,0,R,ugm-3,15,R,ugm-3,15,R,ugm-3,58,R,ugm-3,3,R,ugm-3
10-01-2010,21:00,0,R,ugm-3,15,R,ugm-3,15,R,ugm-3,58,R,ugm-3,3,R,ugm-3
10-01-2010,22:00,0,R,ugm-3,13,R,ugm-3,13,R,ugm-3,60,R,ugm-3,3,R,ugm-3
10-01-2010,23:00,0,R,ugm-3,13,R,ugm-3,13,R,ugm-3,56,R,ugm-3,3,R,ugm-3
10-01-2010,24:00,0,R,ugm-3,11,R,ugm-3,11,R,ugm-3,56,R,ugm-3,3,R,ugm-3
11-01-2010,01:00,0,R,ugm-3,10,R,ugm-3,10,R,ugm-3,56,R,ugm-3,3,R,ugm-3
11-01-2010,02:00,0,R,ugm-3,6,R,ugm-3,6,R,ugm-3,58,R,ugm-3,3,R,ugm-3
11-01-2010,03:00,0,R,ugm-3,4,R,ugm-3,4,R,ugm-3,60,R,ugm-3,0,R,ugm-3
11-01-2010,04:00,0,R,ugm-3,8,R,ugm-3,8,R,ugm-3,56,R,ugm-3,0,R,ugm-3
11-01-2010,05:00,0,R,ugm-3,13,R,ugm-3,13,R,ugm-3,50,R,ugm-3,0,R,ugm-3
11-01-2010,06:00,1,R,ugm-3,21,R,ugm-3,23,R,ugm-3,40,R,ugm-3,0,R,ugm-3
11-01-2010,07:00,4,R,ugm-3,32,R,ugm-3,38,R,ugm-3,30,R,ugm-3,0,R,ugm-3
11-01-2010,08:00,6,R,ugm-3,40,R,ugm-3,50,R,ugm-3,18,R,ugm-3,3,R,ugm-3
11-01-2010,09:00,15,R,ugm-3,52,R,ugm-3,74,R,ugm-3,6,R,ugm-3,3,R,ugm-3
11-01-2010,10:00,24,R,ugm-3,53,R,ugm-3,90,R,ugm-3,8,R,ugm-3,3,R,ugm-3
11-01-2010,11:00,25,R,ugm-3,50,R,ugm-3,88,R,ugm-3,8,R,ugm-3,3,R,ugm-3
11-01-2010,12:00,30,R,ugm-3,52,R,ugm-3,97,R,ugm-3,6,R,ugm-3,3,R,ugm-3
11-01-2010,13:00,40,R,ugm-3,53,R,ugm-3,115,R,ugm-3,6,R,ugm-3,3,R,ugm-3
11-01-2010,14:00,33,R,ugm-3,53,R,ugm-3,103,R,ugm-3,6,R,ugm-3,3,R,ugm-3
11-01-2010,15:00,30,R,ugm-3,55,R,ugm-3,101,R,ugm-3,4,R,ugm-3,3,R,ugm-3
11-01-2010,16:00,24,R,ugm-3,57,R,ugm-3,94,R,ugm-3,4,R,ugm-3,3,R,ugm-3
11-01-2010,17:00,29,R,ugm-3,59,R,ugm-3,103,R,ugm-3,2,R,ugm-3,3,R,ugm-3
11-01-2010,18:00,43,R,ugm-3,61,R,ugm-3,126,R,ugm-3,0,R,ugm-3,3,R,ugm-3
11-01-2010,19:00,30,R,ugm-3,55,R,ugm-3,101,R,ugm-3,2,R,ugm-3,3,R,ugm-3
11-01-2010,20:00,26,R,ugm-3,55,R,ugm-3,96,R,ugm-3,0,R,ugm-3,3,R,ugm-3
11-01-2010,21:00,15,R,ugm-3,50,R,ugm-3,73,R,ugm-3,2,R,ugm-3,3,R,ugm-3
11-01-2010,22:00,20,R,ugm-3,50,R,ugm-3,80,R,ugm-3,0,R,ugm-3,3,R,ugm-3
11-01-2010,23:00,9,R,ugm-3,46,R,ugm-3,59,R,ugm-3,2,R,ugm-3,3,R,ugm-3
11-01-2010,24:00,11,R,ugm-3,50,R,ugm-3,67,R,ugm-3,2,R,ugm-3,3,R,ugm-3
12-01-2010,01:00,11,R,ugm-3,48,R,ugm-3,65,R,ugm-3,2,R,ugm-3,3,R,ugm-3
12-01-2010,02:00,4,R,ugm-3,40,R,ugm-3,46,R,ugm-3,10,R,ugm-3,3,R,ugm-3
12-01-2010,03:00,1,R,ugm-3,32,R,ugm-3,34,R,ugm-3,20,R,ugm-3,3,R,ugm-3
12-01-2010,04:00,1,R,ugm-3,32,R,ugm-3,34,R,ugm-3,20,R,ugm-3,3,R,ugm-3
12-01-2010,05:00,3,R,ugm-3,36,R,ugm-3,40,R,ugm-3,18,R,ugm-3,3,R,ugm-3
12-01-2010,06:00,3,R,ugm-3,34,R,ugm-3,38,R,ugm-3,20,R,ugm-3,3,R,ugm-3
12-01-2010,07:00,5,R,ugm-3,38,R,ugm-3,46,R,ugm-3,16,R,ugm-3,3,R,ugm-3
12-01-2010,08:00,11,R,ugm-3,48,R,ugm-3,65,R,ugm-3,8,R,ugm-3,3,R,ugm-3
12-01-2010,09:00,18,R,ugm-3,52,R,ugm-3,78,R,ugm-3,8,R,ugm-3,3,R,ugm-3
12-01-2010,10:00,21,R,ugm-3,46,R,ugm-3,78,R,ugm-3,14,R,ugm-3,5,R,ugm-3
12-01-2010,11:00,20,R,ugm-3,44,R,ugm-3,74,R,ugm-3,16,R,ugm-3,5,R,ugm-3
12-01-2010,12:00,23,R,ugm-3,42,R,ugm-3,76,R,ugm-3,12,R,ugm-3,5,R,ugm-3
12-01-2010,13:00,23,R,ugm-3,44,R,ugm-3,78,R,ugm-3,12,R,ugm-3,5,R,ugm-3
12-01-2010,14:00,20,R,ugm-3,48,R,ugm-3,78,R,ugm-3,12,R,ugm-3,5,R,ugm-3
12-01-2010,15:00,18,R,ugm-3,52,R,ugm-3,78,R,ugm-3,10,R,ugm-3,8,R,ugm-3
12-01-2010,16:00,18,R,ugm-3,55,R,ugm-3,82,R,ugm-3,4,R,ugm-3,11,R,ugm-3
12-01-2010,17:00,16,R,ugm-3,55,R,ugm-3,80,R,ugm-3,2,R,ugm-3,11,R,ugm-3
12-01-2010,18:00,14,R,ugm-3,53,R,ugm-3,74,R,ugm-3,4,R,ugm-3,8,R,ugm-3
12-01-2010,19:00,9,R,ugm-3,48,R,ugm-3,61,R,ugm-3,4,R,ugm-3,8,R,ugm-3
12-01-2010,20:00,4,R,ugm-3,44,R,ugm-3,50,R,ugm-3,10,R,ugm-3,8,R,ugm-3
12-01-2010,21:00,4,R,ugm-3,44,R,ugm-3,50,R,ugm-3,10,R,ugm-3,8,R,ugm-3
12-01-2010,22:00,3,R,ugm-3,44,R,ugm-3,48,R,ugm-3,10,R,ugm-3,5,R,ugm-3
12-01-2010,23:00,3,R,ugm-3,44,R,ugm-3,48,R,ugm-3,8,R,ugm-3,3,R,ugm-3
12-01-2010,24:00,1,R,ugm-3,44,R,ugm-3,46,R,ugm-3,8,R,ugm-3,3,R,ugm-3
13-01-2010,01:00,3,R,ugm-3,44,R,ugm-3,48,R,ugm-3,6,R,ugm-3,3,R,ugm-3
13-01-2010,02:00,3,R,ugm-3,40,R,ugm-3,44,R,ugm-3,10,R,ugm-3,3,R,ugm-3
13-01-2010,03:00,3,R,ugm-3,40,R,ugm-3,44,R,ugm-3,10,R,ugm-3,3,R,ugm-3
13-01-2010,04:00,5,R,ugm-3,42,R,ugm-3,50,R,ugm-3,4,R,ugm-3,3,R,ugm-3
13-01-2010,05:00,8,R,ugm-3,44,R,ugm-3,55,R,ugm-3,2,R,ugm-3,3,R,ugm-3
13-01-2010,06:00,20,R,ugm-3,48,R,ugm-3,78,R,ugm-3,0,R,ugm-3,3,R,ugm-3
13-01-2010,07:00,20,R,ugm-3,48,R,ugm-3,78,R,ugm-3,2,R,ugm-3,3,R,ugm-3
13-01-2010,08:00,45,R,ugm-3,53,R,ugm-3,122,R,ugm-3,0,R,ugm-3,3,R,ugm-3
13-01-2010,09:00,,,,,,,,,,,,,,,
13-01-2010,10:00,65,R,ugm-3,55,R,ugm-3,155,R,ugm-3,4,R,ugm-3,3,R,ugm-3
13-01-2010,11:00,50,R,ugm-3,48,R,ugm-3,124,R,ugm-3,6,R,ugm-3,5,R,ugm-3
13-01-2010,12:00,50,R,ugm-3,48,R,ugm-3,124,R,ugm-3,8,R,ugm-3,5,R,ugm-3
13-01-2010,13:00,55,R,ugm-3,48,R,ugm-3,132,R,ugm-3,8,R,ugm-3,5,R,ugm-3
13-01-2010,14:00,44,R,ugm-3,50,R,ugm-3,117,R,ugm-3,6,R,ugm-3,5,R,ugm-3
13-01-2010,15:00,50,R,ugm-3,53,R,ugm-3,130,R,ugm-3,4,R,ugm-3,5,R,ugm-3
13-01-2010,16:00,54,R,ugm-3,55,R,ugm-3,138,R,ugm-3,2,R,ugm-3,5,R,ugm-3
13-01-2010,17:00,55,R,ugm-3,59,R,ugm-3,143,R,ugm-3,2,R,ugm-3,3,R,ugm-3
13-01-2010,18:00,39,R,ugm-3,57,R,ugm-3,117,R,ugm-3,0,R,ugm-3,5,R,ugm-3
13-01-2010,19:00,30,R,ugm-3,57,R,ugm-3,103,R,ugm-3,0,R,ugm-3,5,R,ugm-3
13-01-2010,20:00,28,R,ugm-3,55,R,ugm-3,97,R,ugm-3,0,R,ugm-3,5,R,ugm-3
13-01-2010,21:00,35,R,ugm-3,57,R,ugm-3,111,R,ugm-3,2,R,ugm-3,8,R,ugm-3
13-01-2010,22:00,35,R,ugm-3,57,R,ugm-3,111,R,ugm-3,2,R,ugm-3,8,R,ugm-3
13-01-2010,23:00,36,R,ugm-3,55,R,ugm-3,111,R,ugm-3,2,R,ugm-3,8,R,ugm-3
13-01-2010,24:00,35,R,ugm-3,55,R,ugm-3,109,R,ugm-3,2,R,ugm-3,8,R,ugm-3
14-01-2010,01:00,38,R,ugm-3,53,R,ugm-3,111,R,ugm-3,2,R,ugm-3,8,R,ugm-3
14-01-2010,02:00,41,R,ugm-3,53,R,ugm-3,117,R,ugm-3,0,R,ugm-3,8,R,ugm-3
14-01-2010,03:00,41,R,ugm-3,55,R,ugm-3,118,R,ugm-3,0,R,ugm-3,5,R,ugm-3
14-01-2010,04:00,55,R,ugm-3,52,R,ugm-3,136,R,ugm-3,0,R,ugm-3,5,R,ugm-3
14-01-2010,05:00,69,R,ugm-3,55,R,ugm-3,160,R,ugm-3,2,R,ugm-3,5,R,ugm-3
14-01-2010,06:00,81,R,ugm-3,59,R,ugm-3,183,R,ugm-3,2,R,ugm-3,5,R,ugm-3
14-01-2010,07:00,101,R,ugm-3,65,R,ugm-3,220,R,ugm-3,2,R,ugm-3,5,R,ugm-3
14-01-2010,08:00,141,R,ugm-3,73,R,ugm-3,288,R,ugm-3,2,R,ugm-3,5,R,ugm-3
14-01-2010,09:00,216,R,ugm-3,88,R,ugm-3,418,R,ugm-3,2,R,ugm-3,5,R,ugm-3
14-01-2010,10:00,253,R,ugm-3,94,R,ugm-3,479,R,ugm-3,2,R,ugm-3,8,R,ugm-3
14-01-2010,11:00,178,R,ugm-3,80,R,ugm-3,351,R,ugm-3,4,R,ugm-3,5,R,ugm-3
14-01-2010,12:00,205,R,ugm-3,88,R,ugm-3,401,R,ugm-3,4,R,ugm-3,8,R,ugm-3
14-01-2010,13:00,239,R,ugm-3,99,R,ugm-3,464,R,ugm-3,4,R,ugm-3,11,R,ugm-3
14-01-2010,14:00,199,R,ugm-3,96,R,ugm-3,399,R,ugm-3,4,R,ugm-3,8,R,ugm-3
14-01-2010,15:00,184,R,ugm-3,96,R,ugm-3,376,R,ugm-3,2,R,ugm-3,8,R,ugm-3
14-01-2010,16:00,89,R,ugm-3,80,R,ugm-3,216,R,ugm-3,2,R,ugm-3,8,R,ugm-3
14-01-2010,17:00,74,R,ugm-3,82,R,ugm-3,195,R,ugm-3,0,R,ugm-3,5,R,ugm-3
14-01-2010,18:00,95,R,ugm-3,90,R,ugm-3,235,R,ugm-3,0,R,ugm-3,5,R,ugm-3
14-01-2010,19:00,89,R,ugm-3,86,R,ugm-3,222,R,ugm-3,0,R,ugm-3,3,R,ugm-3
14-01-2010,20:00,84,R,ugm-3,82,R,ugm-3,210,R,ugm-3,0,R,ugm-3,5,R,ugm-3
14-01-2010,21:00,51,R,ugm-3,74,R,ugm-3,153,R,ugm-3,0,R,ugm-3,5,R,ugm-3
14-01-2010,22:00,41,R,ugm-3,73,R,ugm-3,136,R,ugm-3,6,R,ugm-3,3,R,ugm-3
14-01-2010,23:00,3,R,ugm-3,34,R,ugm-3,38,R,ugm-3,38,R,ugm-3,3,R,ugm-3
14-01-2010,24:00,1,R,ugm-3,32,R,ugm-3,34,R,ugm-3,36,R,ugm-3,3,R,ugm-3